Total_Precipitation_Accumulation
0.00 0.00 0.01 0.00 0.01 0.01 0.02 0.03 0.06 0.05 0.02 0.00 0.00 0.00 0.00 0.00 0.00 0.01 0.04 0.05 0.04 0.04 0.04 0.03 0.02 0.02 0.02 0.02 0.02 0.02 0.03 0.03 0.04 0.05 0.08 0.12 0.18 0.22
0.01 0.01 0.02 0.02 0.03 0.03 0.05 0.05 0.06 0.07 0.06 0.01 0.01 0.01 0.01 0.02 0.01 0.03 0.05 0.05 0.04 0.03 0.03 0.03 0.03 0.04 0.03 0.03 0.04 0.04 0.03 0.03 0.03 0.03 0.04 0.06 0.09 0.15
0.02 0.02 0.04 0.05 0.06 0.06 0.06 0.05 0.05 0.08 0.10 0.04 0.02 0.02 0.05 0.07 0.07 0.10 0.11 0.11 0.10 0.07 0.06 0.07 0.07 0.07 0.06 0.07 0.07 0.07 0.07 0.07 0.06 0.05 0.05 0.04 0.05 0.07
0.03 0.04 0.05 0.05 0.07 0.06 0.06 0.05 0.06 0.08 0.11 0.09 0.07 0.07 0.08 0.11 0.11 0.11 0.06 0.05 0.10 0.08 0.08 0.09 0.10 0.10 0.10 0.10 0.10 0.08 0.06 0.06 0.06 0.06 0.07 0.06 0.05 0.04
0.03 0.04 0.05 0.05 0.06 0.05 0.04 0.04 0.05 0.07 0.12 0.14 0.12 0.11 0.10 0.08 0.09 0.08 0.08 0.12 0.09 0.08 0.08 0.08 0.08 0.08 0.07 0.06 0.06 0.06 0.05 0.04 0.03 0.03 0.04 0.06 0.06 0.05
0.03 0.03 0.03 0.04 0.04 0.04 0.04 0.05 0.08 0.11 0.13 0.15 0.13 0.09 0.07 0.06 0.09 0.09 0.09 0.10 0.10 0.08 0.07 0.06 0.05 0.03 0.03 0.02 0.03 0.03 0.04 0.04 0.05 0.04 0.03 0.02 0.02 0.02
0.02 0.02 0.02 0.03 0.05 0.05 0.06 0.07 0.11 0.14 0.14 0.14 0.12 0.08 0.06 0.06 0.07 0.09 0.09 0.06 0.05 0.04 0.04 0.02 0.02 0.02 0.02 0.02 0.01 0.02 0.02 0.02 0.02 0.02 0.02 0.01 0.01 0.01
0.02 0.02 0.02 0.02 0.02 0.03 0.05 0.09 0.13 0.15 0.15 0.14 0.11 0.09 0.06 0.06 0.10 0.13 0.12 0.12 0.10 0.06 0.06 0.04 0.02 0.02 0.02 0.03 0.05 0.05 0.04 0.03 0.02 0.01 0.00 0.00 0.00 0.00
0.03 0.04 0.02 0.01 0.02 0.04 0.05 0.06 0.06 0.07 0.10 0.15 0.14 0.09 0.08 0.10 0.19 0.21 0.20 0.19 0.16 0.12 0.12 0.10 0.05 0.04 0.04 0.06 0.10 0.10 0.08 0.07 0.06 0.02 0.01 0.00 0.00 0.00
0.03 0.04 0.04 0.03 0.03 0.05 0.04 0.03 0.03 0.02 0.04 0.08 0.12 0.11 0.11 0.14 0.23 0.28 0.26 0.24 0.18 0.13 0.17 0.19 0.10 0.07 0.06 0.09 0.15 0.15 0.11 0.13 0.11 0.05 0.02 0.01 0.00 0.00
0.02 0.02 0.04 0.04 0.06 0.08 0.06 0.04 0.04 0.03 0.05 0.13 0.19 0.22 0.26 0.31 0.33 0.33 0.33 0.31 0.25 0.19 0.23 0.29 0.23 0.17 0.12 0.12 0.15 0.17 0.18 0.25 0.23 0.12 0.05 0.03 0.02 0.01
0.01 0.02 0.05 0.06 0.06 0.07 0.05 0.07 0.09 0.07 0.11 0.17 0.27 0.41 0.45 0.44 0.41 0.36 0.32 0.31 0.30 0.34 0.33 0.36 0.31 0.22 0.18 0.17 0.16 0.16 0.20 0.35 0.37 0.23 0.10 0.06 0.05 0.03
0.03 0.04 0.05 0.07 0.06 0.06 0.07 0.09 0.13 0.15 0.18 0.24 0.35 0.43 0.42 0.33 0.26 0.23 0.22 0.26 0.32 0.38 0.36 0.33 0.28 0.24 0.25 0.24 0.18 0.21 0.28 0.40 0.43 0.32 0.18 0.11 0.08 0.05
0.03 0.05 0.08 0.10 0.08 0.10 0.11 0.14 0.17 0.21 0.21 0.28 0.35 0.36 0.29 0.21 0.19 0.17 0.16 0.19 0.25 0.29 0.28 0.26 0.25 0.20 0.21 0.20 0.21 0.30 0.42 0.54 0.55 0.41 0.24 0.19 0.13 0.10
0.04 0.09 0.13 0.15 0.16 0.16 0.19 0.20 0.20 0.19 0.22 0.27 0.31 0.29 0.23 0.17 0.14 0.13 0.13 0.16 0.19 0.22 0.22 0.21 0.19 0.19 0.21 0.23 0.31 0.41 0.53 0.71 0.69 0.52 0.36 0.26 0.15 0.10
0.04 0.11 0.20 0.25 0.26 0.25 0.25 0.24 0.20 0.21 0.24 0.24 0.23 0.19 0.15 0.13 0.11 0.11 0.14 0.16 0.19 0.22 0.22 0.20 0.20 0.25 0.31 0.37 0.43 0.48 0.50 0.67 0.73 0.58 0.45 0.38 0.29 0.22
0.04 0.08 0.16 0.22 0.23 0.21 0.20 0.19 0.19 0.20 0.20 0.16 0.15 0.14 0.12 0.12 0.12 0.12 0.13 0.14 0.18 0.22 0.23 0.21 0.22 0.23 0.24 0.29 0.36 0.39 0.43 0.53 0.62 0.54 0.41 0.45 0.51 0.39
0.05 0.10 0.18 0.25 0.27 0.24 0.21 0.18 0.16 0.16 0.15 0.14 0.13 0.12 0.13 0.13 0.14 0.15 0.13 0.12 0.14 0.16 0.18 0.18 0.17 0.15 0.11 0.16 0.31 0.35 0.38 0.50 0.55 0.43 0.31 0.39 0.53 0.47
0.04 0.10 0.17 0.23 0.24 0.21 0.19 0.18 0.17 0.15 0.13 0.13 0.13 0.13 0.13 0.13 0.13 0.13 0.12 0.12 0.12 0.13 0.13 0.13 0.12 0.10 0.06 0.13 0.32 0.43 0.43 0.47 0.46 0.40 0.32 0.30 0.43 0.47
0.07 0.12 0.15 0.18 0.21 0.20 0.18 0.16 0.15 0.13 0.12 0.12 0.13 0.14 0.14 0.13 0.12 0.12 0.12 0.11 0.11 0.09 0.09 0.10 0.11 0.10 0.06 0.09 0.24 0.42 0.50 0.41 0.33 0.32 0.31 0.29 0.38 0.40
0.10 0.13 0.15 0.15 0.16 0.16 0.16 0.16 0.15 0.14 0.14 0.14 0.14 0.14 0.14 0.13 0.12 0.11 0.10 0.09 0.08 0.06 0.06 0.07 0.09 0.09 0.04 0.04 0.11 0.23 0.35 0.41 0.34 0.28 0.26 0.25 0.22 0.17
0.12 0.13 0.14 0.13 0.13 0.13 0.12 0.13 0.13 0.12 0.12 0.13 0.15 0.16 0.15 0.13 0.12 0.10 0.09 0.08 0.07 0.05 0.05 0.06 0.06 0.06 0.05 0.05 0.10 0.18 0.22 0.24 0.26 0.27 0.24 0.14 0.07 0.08
0.13 0.13 0.12 0.11 0.11 0.10 0.10 0.09 0.10 0.10 0.10 0.12 0.14 0.15 0.14 0.12 0.10 0.08 0.06 0.04 0.04 0.03 0.02 0.03 0.03 0.03 0.03 0.04 0.06 0.10 0.11 0.09 0.07 0.07 0.11 0.11 0.07 0.08